• In Uzbekistan
  • List of Countries
  • For 7 days
  • Water Temperature
  • Satellite Maps
  • Weather Map
  • Weather Widgets
  • user-avatar
    Login

    Hourly Weather Haikou

    Today, 21 November, Wednesday

    Time Temperature Precipitation Wind Pressure Humidity
    00:00 +26°C° 0 mm 3 mps 761 mmHg 93%
    01:00 +26°C° 0 mm 3 mps 761 mmHg 94%
    02:00 +26°C° 0 mm 3 mps 761 mmHg 94%
    03:00 +26°C° 0 mm 3 mps 760 mmHg 95%
    04:00 +26°C° 0 mm 3 mps 760 mmHg 95%
    05:00 +26°C° 0 mm 3 mps 761 mmHg 93%
    06:00 +27°C° 0 mm 3 mps 761 mmHg 91%
    07:00 +27°C° 0 mm 2 mps 761 mmHg 88%
    08:00 +28°C° 0 mm 2 mps 762 mmHg 83%
    09:00 +29°C° 0 mm 2 mps 762 mmHg 77%
    10:00 +30°C° 0 mm 2 mps 762 mmHg 72%
    11:00 +31°C° 0.3 mm 2 mps 761 mmHg 70%
    12:00 +31°C° 0.3 mm 2 mps 761 mmHg 68%
    13:00 +31°C° 0.3 mm 3 mps 760 mmHg 66%
    14:00 +31°C° 0.4 mm 3 mps 760 mmHg 69%
    15:00 +30°C° 0.4 mm 3 mps 760 mmHg 72%
    16:00 +29°C° 0.4 mm 3 mps 760 mmHg 75%
    17:00 +28°C° 0.5 mm 3 mps 760 mmHg 79%
    18:00 +28°C° 0.5 mm 4 mps 761 mmHg 82%
    19:00 +27°C° 0.5 mm 4 mps 761 mmHg 85%
    20:00 +26°C° 0.2 mm 4 mps 762 mmHg 85%
    21:00 +26°C° 0.2 mm 5 mps 762 mmHg 85%
    22:00 +26°C° 0.2 mm 6 mps 763 mmHg 84%
    23:00 +24°C° 0.3 mm 6 mps 763 mmHg 84%

    Tomorrow, 22 November, Thursday

    Time Temperature Precipitation Wind Pressure Humidity
    00:00 +24°C° 0.3 mm 6 mps 763 mmHg 84%
    01:00 +24°C° 0.3 mm 7 mps 763 mmHg 84%
    02:00 +24°C° 0.1 mm 7 mps 763 mmHg 82%
    03:00 +23°C° 0.1 mm 7 mps 763 mmHg 81%
    04:00 +23°C° 0.1 mm 7 mps 763 mmHg 80%
    05:00 +23°C° 0 mm 7 mps 763 mmHg 79%
    06:00 +23°C° 0 mm 7 mps 763 mmHg 78%
    07:00 +23°C° 0 mm 6 mps 764 mmHg 77%
    08:00 +23°C° 0 mm 6 mps 764 mmHg 74%
    09:00 +24°C° 0 mm 6 mps 764 mmHg 71%
    10:00 +26°C° 0 mm 6 mps 765 mmHg 69%
    11:00 +26°C° 0 mm 6 mps 764 mmHg 66%
    12:00 +26°C° 0 mm 6 mps 763 mmHg 64%
    13:00 +27°C° 0 mm 6 mps 763 mmHg 62%
    14:00 +26°C° 0 mm 6 mps 763 mmHg 63%
    15:00 +26°C° 0 mm 6 mps 763 mmHg 64%
    16:00 +26°C° 0 mm 6 mps 763 mmHg 65%
    17:00 +25°C° 0 mm 5 mps 763 mmHg 67%
    18:00 +25°C° 0 mm 5 mps 764 mmHg 69%
    19:00 +23°C° 0 mm 5 mps 764 mmHg 71%
    20:00 +23°C° 0 mm 5 mps 764 mmHg 71%
    21:00 +23°C° 0 mm 5 mps 764 mmHg 72%
    22:00 +23°C° 0 mm 5 mps 764 mmHg 72%
    23:00 +23°C° 0 mm 5 mps 764 mmHg 73%

    Day after tomorrow, 23 November, Friday

    Time Temperature Precipitation Wind Pressure Humidity
    00:00 +23°C° 0 mm 5 mps 764 mmHg 74%
    01:00 +23°C° 0 mm 5 mps 764 mmHg 74%
    02:00 +23°C° 0 mm 5 mps 764 mmHg 74%
    03:00 +23°C° 0 mm 5 mps 763 mmHg 74%
    04:00 +23°C° 0 mm 5 mps 763 mmHg 75%
    05:00 +23°C° 0 mm 5 mps 764 mmHg 74%
    06:00 +23°C° 0 mm 6 mps 764 mmHg 74%
    07:00 +23°C° 0 mm 6 mps 764 mmHg 73%
    08:00 +24°C° 0 mm 6 mps 764 mmHg 72%
    09:00 +24°C° 0 mm 6 mps 765 mmHg 70%
    10:00 +26°C° 0 mm 6 mps 765 mmHg 69%
    11:00 +26°C° 0 mm 6 mps 764 mmHg 69%
    12:00 +26°C° 0 mm 6 mps 763 mmHg 69%
    13:00 +27°C° 0 mm 6 mps 762 mmHg 69%
    14:00 +26°C° 0 mm 6 mps 762 mmHg 70%
    15:00 +26°C° 0 mm 5 mps 762 mmHg 72%
    16:00 +25°C° 0 mm 5 mps 761 mmHg 74%
    17:00 +25°C° 0 mm 5 mps 762 mmHg 76%
    18:00 +25°C° 0 mm 5 mps 763 mmHg 78%
    19:00 +23°C° 0 mm 4 mps 763 mmHg 80%
    20:00 +23°C° 0 mm 4 mps 763 mmHg 80%
    21:00 +23°C° 0 mm 4 mps 763 mmHg 80%
    22:00 +23°C° 0 mm 4 mps 764 mmHg 80%
    23:00 +23°C° 0 mm 4 mps 763 mmHg 80%

    24 November, Saturday

    Time Temperature Precipitation Wind Pressure Humidity
    00:00 +23°C° 0 mm 4 mps 763 mmHg 79%
    01:00 +23°C° 0 mm 4 mps 763 mmHg 79%
    02:00 +23°C° 0 mm 4 mps 762 mmHg 80%
    03:00 +23°C° 0 mm 4 mps 762 mmHg 81%
    04:00 +23°C° 0 mm 5 mps 762 mmHg 81%
    05:00 +23°C° 0 mm 5 mps 762 mmHg 80%
    06:00 +25°C° 0 mm 5 mps 763 mmHg 79%
    07:00 +25°C° 0 mm 5 mps 763 mmHg 78%
    08:00 +26°C° 0 mm 6 mps 763 mmHg 75%
    09:00 +27°C° 0 mm 6 mps 763 mmHg 71%
    10:00 +28°C° 0 mm 7 mps 763 mmHg 68%
    11:00 +28°C° 0 mm 7 mps 763 mmHg 69%
    12:00 +28°C° 0 mm 7 mps 762 mmHg 69%
    13:00 +28°C° 0 mm 7 mps 762 mmHg 70%
    14:00 +27°C° 0.1 mm 7 mps 761 mmHg 72%
    15:00 +27°C° 0.1 mm 7 mps 761 mmHg 73%
    16:00 +26°C° 0.1 mm 7 mps 761 mmHg 75%
    17:00 +26°C° 0.1 mm 7 mps 762 mmHg 76%
    18:00 +26°C° 0.1 mm 7 mps 762 mmHg 78%
    19:00 +26°C° 0.1 mm 7 mps 763 mmHg 79%
    20:00 +26°C° 0 mm 6 mps 763 mmHg 79%
    21:00 +26°C° 0 mm 6 mps 763 mmHg 80%
    22:00 +26°C° 0 mm 6 mps 763 mmHg 81%
    23:00 +26°C° 0 mm 6 mps 763 mmHg 82%

    25 November, Sunday

    Time Temperature Precipitation Wind Pressure Humidity
    00:00 +26°C° 0 mm 6 mps 762 mmHg 83%
    01:00 +26°C° 0 mm 6 mps 762 mmHg 84%
    02:00 +26°C° 0.2 mm 7 mps 762 mmHg 83%
    03:00 +26°C° 0.2 mm 7 mps 761 mmHg 83%
    04:00 +26°C° 0.2 mm 7 mps 761 mmHg 83%
    05:00 +24°C° 0.4 mm 8 mps 761 mmHg 83%
    06:00 +24°C° 0.4 mm 8 mps 762 mmHg 82%
    07:00 +24°C° 0.4 mm 8 mps 762 mmHg 82%
    08:00 +24°C° 0.5 mm 8 mps 762 mmHg 82%
    09:00 +26°C° 0.5 mm 8 mps 763 mmHg 82%
    10:00 +26°C° 0.5 mm 8 mps 763 mmHg 82%
    11:00 +24°C° 1.2 mm 9 mps 762 mmHg 82%
    12:00 +24°C° 1.2 mm 9 mps 761 mmHg 83%
    13:00 +24°C° 1.2 mm 9 mps 761 mmHg 83%
    14:00 +24°C° 1.7 mm 9 mps 760 mmHg 82%
    15:00 +24°C° 1.7 mm 9 mps 760 mmHg 82%
    16:00 +24°C° 1.7 mm 10 mps 760 mmHg 82%
    17:00 +24°C° 2 mm 9 mps 761 mmHg 83%
    18:00 +24°C° 2 mm 9 mps 761 mmHg 83%
    19:00 +23°C° 2 mm 9 mps 762 mmHg 84%
    20:00 +23°C° 1.8 mm 9 mps 762 mmHg 84%
    21:00 +23°C° 1.8 mm 9 mps 762 mmHg 85%
    22:00 +23°C° 1.8 mm 8 mps 762 mmHg 86%
    23:00 +23°C° 1 mm 8 mps 762 mmHg 86%

    26 November, Monday

    Time Temperature Precipitation Wind Pressure Humidity
    00:00 +23°C° 1 mm 8 mps 762 mmHg 86%
    01:00 +23°C° 1 mm 8 mps 762 mmHg 86%
    02:00 +23°C° 1.2 mm 8 mps 762 mmHg 86%
    03:00 +23°C° 1.2 mm 8 mps 761 mmHg 86%
    04:00 +23°C° 1.2 mm 8 mps 761 mmHg 87%
    05:00 +23°C° 0.7 mm 8 mps 762 mmHg 87%
    06:00 +23°C° 0.7 mm 9 mps 762 mmHg 87%
    07:00 +22°C° 0.7 mm 9 mps 763 mmHg 87%
    08:00 +23°C° 0.8 mm 9 mps 763 mmHg 87%
    09:00 +23°C° 0.8 mm 9 mps 763 mmHg 87%
    10:00 +23°C° 0.8 mm 9 mps 763 mmHg 87%
    11:00 +23°C° 1.7 mm 9 mps 763 mmHg 87%
    12:00 +22°C° 1.7 mm 9 mps 762 mmHg 87%
    13:00 +22°C° 1.7 mm 9 mps 762 mmHg 87%
    14:00 +22°C° 1.4 mm 9 mps 762 mmHg 87%
    15:00 +22°C° 1.4 mm 9 mps 762 mmHg 86%
    16:00 +22°C° 1.4 mm 8 mps 762 mmHg 86%
    17:00 +22°C° 1.4 mm 9 mps 763 mmHg 86%
    18:00 +22°C° 1.4 mm 9 mps 763 mmHg 86%
    19:00 +22°C° 1.4 mm 9 mps 764 mmHg 87%
    20:00 +22°C° 1.1 mm 9 mps 764 mmHg 87%
    21:00 +21°C° 1.1 mm 9 mps 764 mmHg 87%
    22:00 +21°C° 1.1 mm 9 mps 764 mmHg 87%
    23:00 +21°C° 1.5 mm 9 mps 764 mmHg 87%
    Show more